South Hill, VA

11:57 PM EST on November 18, 2019 (GMT -0500)
Mecklenburg-Brunswick Regional

Weather History for KAVC - August, 2019

Change the Weather History Date:

Sunday, August 4, 2019

  Actual Average (KEMV) Record (KEMV)
Temperature  
Mean Temperature 78 °F -  
Max Temperature 91 °F 89 °F 100 °F (1987)
Min Temperature 66 °F 66 °F 57 °F (1985)
Cooling Degree Days 14    
Growing Degree Days 28 (Base 50)    
Moisture  
Dew Point 71 °F    
Average Humidity 88    
Maximum Humidity 100    
Minimum Humidity 52    
Precipitation  
Precipitation 0.04 in - - ()
Sea Level Pressure  
Sea Level Pressure 30.02 in    
Wind  
Wind Speed 2 mph (SSW)    
Max Wind Speed 15 mph    
Max Gust Speed 23 mph    
Visibility 10 miles    
Events      
Averages and records for this station are not official NWS values.
T = Trace of Precipitation, MM = Missing Value Source: NWS Daily Summary

Daily Weather History Graph

Daily Weather History Graph

Search for Another Location

Airport or City:

Astronomy

Aug. 04, 2019 Rise Set
Actual Time 6:20 AM EDT 8:15 PM EDT
Civil Twilight 5:51 AM EDT 8:44 PM EDT
Nautical Twilight 5:17 AM EDT 9:18 PM EDT
Astronomical Twilight 4:40 AM EDT 9:55 PM EDT
Moon 10:18 AM EDT (8/4) 11:00 PM EDT (8/4)
Length of Visible Light 14h 52m
Length of Day
13h 55m
Waxing Crescent, 18% of the Moon is Illuminated
Aug 4
Waxing Crescent
Aug 7
First Quarter
Aug 15
Full
Aug 23
Last Quarter
Aug 30
New

Hourly Weather History & Observations

Time (EDT) Temp. Heat Index Dew Point Humidity Pressure Visibility Wind Dir Wind Speed Gust Speed Precip Events Conditions
12:15 AM 71.2 °F - 71.2 °F 100% 30.04 in 10.0 mi Calm Calm - N/A   Clear
12:35 AM 72.5 °F - 72.5 °F 100% 30.04 in 10.0 mi SSE 3.5 mph - N/A   Clear
12:55 AM 71.6 °F - 71.6 °F 100% 30.04 in 10.0 mi Calm Calm - N/A   Clear
1:15 AM 71.4 °F - 71.4 °F 100% 30.04 in 10.0 mi Calm Calm - N/A   Clear
1:35 AM 68.5 °F - 68.5 °F 100% 30.04 in 10.0 mi Calm Calm - N/A   Clear
1:55 AM 70.2 °F - 70.2 °F 100% 30.03 in 10.0 mi Calm Calm - N/A   Clear
2:15 AM 69.1 °F - 69.1 °F 100% 30.04 in 10.0 mi Calm Calm - N/A   Clear
2:35 AM 69.4 °F - 69.4 °F 100% 30.03 in 10.0 mi Calm Calm - N/A   Clear
2:55 AM 70.0 °F - 70.0 °F 100% 30.03 in 10.0 mi Calm Calm - N/A   Clear
3:15 AM 70.2 °F - 70.2 °F 100% 30.02 in 10.0 mi Calm Calm - N/A   Clear
3:35 AM 69.6 °F - 69.6 °F 100% 30.02 in 10.0 mi Calm Calm - N/A   Clear
3:55 AM 69.1 °F - 69.1 °F 100% 30.02 in 10.0 mi Calm Calm - N/A   Clear
4:15 AM 69.1 °F - 69.1 °F 100% 30.01 in 10.0 mi Calm Calm - N/A   Clear
4:35 AM 69.4 °F - 69.4 °F 100% 30.01 in 10.0 mi Calm Calm - N/A   Clear
4:55 AM 69.3 °F - 69.3 °F 100% 30.01 in 10.0 mi Calm Calm - N/A   Clear
5:15 AM 68.4 °F - 68.4 °F 100% 30.01 in 7.0 mi Calm Calm - N/A   Clear
5:35 AM 66.9 °F - 66.9 °F 100% 30.01 in 10.0 mi Calm Calm - N/A   Clear
5:55 AM 67.6 °F - 67.6 °F 100% 30.01 in 10.0 mi Calm Calm - N/A   Clear
6:15 AM 67.3 °F - 67.3 °F 100% 30.02 in 10.0 mi Calm Calm - N/A   Clear
6:35 AM 68.5 °F - 68.5 °F 100% 30.03 in 10.0 mi Calm Calm - N/A   Clear
6:55 AM 67.6 °F - 67.6 °F 100% 30.03 in 10.0 mi Calm Calm - N/A   Clear
7:15 AM 68.2 °F - 68.2 °F 100% 30.03 in 10.0 mi Calm Calm - N/A   Clear
7:35 AM 70.2 °F - 70.2 °F 100% 30.03 in 10.0 mi Calm Calm - N/A   Clear
7:55 AM 73.4 °F - 73.2 °F 99% 30.04 in 10.0 mi Calm Calm - N/A   Clear
8:15 AM 75.6 °F - 74.3 °F 96% 30.03 in 10.0 mi Calm Calm - N/A   Clear
8:35 AM 77.0 °F - 74.3 °F 91% 30.04 in 10.0 mi SW 3.5 mph - N/A   Clear
8:55 AM 78.8 °F - 73.8 °F 84% 30.03 in 10.0 mi SW 4.6 mph - N/A   Clear
9:15 AM 80.4 °F 85.3 °F 73.9 °F 81% 30.04 in 10.0 mi WSW 4.6 mph - N/A   Clear
9:35 AM 81.7 °F 87.3 °F 73.9 °F 77% 30.04 in 10.0 mi West 5.8 mph - N/A   Clear
9:55 AM 82.8 °F 89.2 °F 74.1 °F 75% 30.03 in 10.0 mi West 5.8 mph - N/A   Clear
10:15 AM 83.5 °F 90.6 °F 74.3 °F 74% 30.03 in 10.0 mi WSW 4.6 mph - N/A   Clear
10:35 AM 84.0 °F 91.2 °F 74.3 °F 72% 30.03 in 10.0 mi SW 6.9 mph - N/A   Clear
10:55 AM 84.7 °F 92.1 °F 74.1 °F 70% 30.03 in 10.0 mi WSW 3.5 mph - N/A   Clear
11:15 AM 84.9 °F 91.8 °F 73.4 °F 68% 30.03 in 10.0 mi Calm Calm - N/A   Scattered Clouds
11:35 AM 85.3 °F 92.6 °F 73.8 °F 68% 30.03 in 10.0 mi SW 4.6 mph - N/A   Clear
11:55 AM 85.5 °F 92.2 °F 72.9 °F 66% 30.03 in 10.0 mi West 3.5 mph - N/A   Scattered Clouds
12:15 PM 87.3 °F 95.3 °F 73.8 °F 64% 30.03 in 10.0 mi SSW 3.5 mph - N/A   Scattered Clouds
12:35 PM 88.0 °F 94.7 °F 72.0 °F 59% 30.03 in 10.0 mi WSW 5.8 mph - N/A   Scattered Clouds
12:55 PM 87.4 °F 95.3 °F 73.4 °F 63% 30.02 in 10.0 mi SW 3.5 mph - N/A   Clear
1:15 PM 87.6 °F 93.1 °F 70.9 °F 57% 30.01 in 10.0 mi WSW 3.5 mph - N/A   Clear
1:35 PM 88.7 °F 96.2 °F 72.5 °F 59% 30.00 in 10.0 mi WSW 4.6 mph - N/A   Mostly Cloudy
1:55 PM 88.9 °F 94.7 °F 70.9 °F 55% 29.99 in 10.0 mi West 4.6 mph - N/A   Overcast
2:15 PM 90.0 °F 96.9 °F 71.6 °F 55% 29.98 in 10.0 mi South 3.5 mph - N/A   Mostly Cloudy
2:35 PM 88.9 °F 94.2 °F 70.2 °F 54% 29.97 in 10.0 mi Calm Calm - N/A   Scattered Clouds
2:55 PM 91.2 °F 98.0 °F 71.6 °F 52% 29.97 in 10.0 mi SW 6.9 mph - N/A   Mostly Cloudy
3:15 PM 85.6 °F 90.8 °F 70.9 °F 61% 29.98 in 10.0 mi NNE 15.0 mph 23.0 mph N/A   Scattered Clouds
3:35 PM 78.8 °F - 71.6 °F 78% 29.99 in 10.0 mi North 13.8 mph 21.9 mph N/A   Mostly Cloudy
3:55 PM 79.9 °F - 72.7 °F 79% 29.98 in 10.0 mi North 11.5 mph 18.4 mph N/A   Mostly Cloudy
4:15 PM 78.3 °F - 72.0 °F 81% 29.98 in 10.0 mi North 6.9 mph - N/A   Scattered Clouds
4:35 PM 76.5 °F - 72.7 °F 88% 29.99 in 10.0 mi Calm Calm - N/A   Mostly Cloudy
4:55 PM 75.0 °F - 74.7 °F 99% 29.99 in 5.0 mi SE 4.6 mph - 0.03 in   Unknown
5:15 PM 74.8 °F - 73.8 °F 96% 29.99 in 10.0 mi South 4.6 mph - 0.01 in   Overcast
5:35 PM 75.6 °F - 73.9 °F 95% 29.99 in 10.0 mi South 6.9 mph - 0.01 in   Overcast
5:55 PM 74.8 °F - 73.2 °F 95% 29.98 in 10.0 mi SSW 8.1 mph 18.4 mph 0.01 in   Mostly Cloudy
6:15 PM 73.8 °F - 71.6 °F 93% 29.97 in 10.0 mi SW 4.6 mph - N/A   Clear
6:35 PM 73.4 °F - 71.2 °F 93% 29.99 in 10.0 mi WSW 3.5 mph - N/A   Clear
6:55 PM 72.9 °F - 72.0 °F 97% 29.99 in 10.0 mi Calm Calm - N/A   Scattered Clouds
7:15 PM 72.5 °F - 72.3 °F 99% 30.00 in 10.0 mi Calm Calm - N/A   Overcast
7:35 PM 72.9 °F - 71.6 °F 96% 30.00 in 10.0 mi SSE 4.6 mph - N/A   Overcast
7:55 PM 72.7 °F - 70.9 °F 94% 30.00 in 10.0 mi Calm Calm - N/A   Mostly Cloudy
8:15 PM 72.5 °F - 71.1 °F 95% 30.00 in 10.0 mi Calm Calm - N/A   Scattered Clouds
8:35 PM 72.0 °F - 70.9 °F 96% 30.01 in 10.0 mi Calm Calm - N/A   Overcast
8:55 PM 71.8 °F - 70.9 °F 97% 30.01 in 10.0 mi Calm Calm - N/A   Overcast
9:15 PM 71.8 °F - 71.6 °F 99% 30.02 in 10.0 mi Calm Calm - N/A   Overcast
9:35 PM 71.6 °F - 71.6 °F 100% 30.03 in 10.0 mi SE 3.5 mph - N/A   Overcast
9:55 PM 72.1 °F - 72.1 °F 100% 30.04 in 10.0 mi SSE 6.9 mph - N/A   Overcast
10:15 PM 72.1 °F - 72.1 °F 100% 30.03 in 10.0 mi SSE 5.8 mph - N/A   Overcast
10:35 PM 71.6 °F - 71.6 °F 100% 30.04 in 10.0 mi Calm Calm - N/A   Scattered Clouds
10:55 PM 71.6 °F - 71.6 °F 100% 30.04 in 10.0 mi South 5.8 mph - N/A   Scattered Clouds
11:15 PM 71.1 °F - 71.1 °F 100% 30.03 in 10.0 mi South 5.8 mph - N/A   Scattered Clouds
11:35 PM 71.1 °F - 71.1 °F 100% 30.04 in 10.0 mi South 3.5 mph - N/A   Clear
11:55 PM 71.2 °F - 71.2 °F 100% 30.04 in 10.0 mi SSW 4.6 mph - N/A   Mostly Cloudy